Location: Glion
(46.4330°N, 6.9246°E)
Time: 07:25:05
(UTC+00:00)

Gbstr 26 Del rocket - Pass Details

Date: 03 March 2021
Orbit: 492 x 1264 km, 51.8° (Epoch: 14 April)

Event Time Altitude Azimuth Distance (km) Brightness Sun altitude
Rises 18:07:12 0° 267° (W) 2,736 8.9 -8.7°
Reaches altitude 10° 18:09:19 10° 273° (W) 1,916 7.3 -9.1°
Maximum altitude 18:13:33 50° 350° (N) 853 3.8 -9.8°
Enters shadow 18:18:35 11° 65° (ENE) 2,283 5.4 -10.7°
